Waarnemingen

Advertentie
Mijn weer
Aguilas, Spanje (8432): temperatuur & dauwpunt: 15.01.2018 13:00:00 - 21.01.2018 13:00:00 (CET)Aguilas, Spanje (8432): windsnelheid & windstoten: 15.01.2018 13:00:00 - 21.01.2018 13:00:00 (CET)Aguilas, Spanje (8432): windrichting: 15.01.2018 13:00:00 - 21.01.2018 13:00:00 (CET)Aguilas, Spanje (8432): luchtdruk: 15.01.2018 13:00:00 - 21.01.2018 13:00:00 (CET)Aguilas, Spanje (8432): zicht: 15.01.2018 13:00:00 - 21.01.2018 13:00:00 (CET)Aguilas, Spanje (8432): Zonneschijnduur: 15.01.2018 13:00:00 - 21.01.2018 13:00:00 (CET)Aguilas, Spanje (8432): neerslag: 15.01.2018 13:00:00 - 21.01.2018 13:00:00 (CET)
Datum & Tijd tt [°C] td [°C] ff [km/u] ff [kn] fx [km/u] fx [kn] dd ppp [hPa] vv [km] sd [min] rr [mm]
21.01.2018 13:00:00 24,8 3,9 10 5 24 13 W 1024,8 20 60 -
21.01.2018 12:00:00 23,2 0,9 18 10 29 16 W 1026,0 20 60 0,0
21.01.2018 11:00:00 21,2 0,4 14 8 29 16 WNW 1026,5 20 60 0,0
21.01.2018 10:00:00 18,1 -0,7 21 11 34 19 WNW 1026,1 20 60 0,0
21.01.2018 09:00:00 17,3 -2,5 15 8 32 17 NNW 1025,3 20 16 0,0
21.01.2018 08:00:00 13,2 -2,7 15 8 27 15 WNW 1025,5 20 0 0,0
21.01.2018 07:00:00 13,3 -2,0 9 5 15 8 Z 1025,0 20 0 -
21.01.2018 06:00:00 16,1 -3,0 6 3 24 13 ZZO 1024,7 20 0 0,0
21.01.2018 05:00:00 13,2 -0,7 9 5 20 11 WNW 1024,8 20 0 0,0
21.01.2018 04:00:00 16,5 -3,0 10 6 27 15 N 1025,1 20 0 0,0
21.01.2018 03:00:00 16,1 -2,0 16 9 37 20 NNW 1025,1 20 0 0,0
21.01.2018 02:00:00 16,0 -1,2 17 9 36 20 NW 1025,1 20 0 0,0
21.01.2018 01:00:00 - - - - - - - - - - -
21.01.2018 00:00:00 13,2 0,2 8 4 15 8 NNW 1025,6 20 0 0,0
20.01.2018 23:00:00 12,9 2,5 7 4 17 9 N 1025,2 20 0 0,0
20.01.2018 22:00:00 12,6 6,2 3 2 11 6 NNO 1025,1 20 0 0,0
20.01.2018 21:00:00 12,6 5,5 4 2 16 9 NW 1024,9 20 0 0,0
20.01.2018 20:00:00 12,7 8,1 2 1 6 3 N 1024,6 15 0 0,0
20.01.2018 19:00:00 15,0 10,0 3 2 14 7 NNO 1024,3 13 0 -
20.01.2018 18:00:00 17,1 9,0 4 2 13 7 W 1024,3 19 54 0,0
20.01.2018 17:00:00 18,0 9,6 6 3 21 11 WZW 1024,3 20 60 0,0
20.01.2018 16:00:00 18,6 8,5 10 5 18 10 W 1024,4 20 60 0,0
20.01.2018 15:00:00 18,1 9,9 8 4 19 10 ZW 1025,0 20 60 0,0
20.01.2018 14:00:00 18,5 7,8 10 6 25 14 ZW 1025,4 20 60 0,0
20.01.2018 13:00:00 17,8 4,6 11 6 21 11 ZZW 1026,2 17 60 -
20.01.2018 12:00:00 18,7 3,2 5 3 11 6 ZZW 1026,8 20 60 0,0
20.01.2018 11:00:00 17,1 5,6 6 3 15 8 ZO 1027,3 20 60 0,0
20.01.2018 10:00:00 16,1 2,1 2 1 26 14 ZW 1026,1 20 60 0,0
20.01.2018 09:00:00 13,9 0,4 17 9 29 15 NW 1025,6 20 15 0,0
20.01.2018 08:00:00 11,3 1,3 12 7 21 12 WNW 1025,3 20 0 0,0
20.01.2018 07:00:00 11,4 1,7 8 4 23 12 NNW 1024,5 20 0 -
20.01.2018 06:00:00 11,3 1,9 14 7 27 14 WNW 1024,2 20 0 0,0
20.01.2018 05:00:00 13,5 1,1 18 10 24 13 NNW 1023,6 20 0 0,0
20.01.2018 04:00:00 11,7 1,9 6 4 - - WZW 1023,7 20 - -
20.01.2018 03:00:00 11,9 2,3 13 7 19 10 W 1023,7 20 0 0,0
20.01.2018 02:00:00 11,9 3,4 8 4 14 8 ZW 1023,2 20 0 0,0
20.01.2018 01:00:00 - - - - - - - - - - -
20.01.2018 00:00:00 9,8 5,8 5 3 12 6 NNW 1023,0 20 0 0,0
19.01.2018 23:00:00 10,5 7,0 6 3 10 6 N 1022,9 17 0 0,0
19.01.2018 22:00:00 10,2 7,3 3 2 8 4 NW 1022,5 14 0 0,0
19.01.2018 21:00:00 11,2 8,1 5 3 9 5 NNW 1022,1 12 0 0,0
19.01.2018 20:00:00 12,1 8,8 4 2 10 6 N 1021,7 12 0 0,0
19.01.2018 19:00:00 13,2 9,0 4 2 8 5 NW 1021,2 10 0 -
19.01.2018 18:00:00 15,1 9,9 5 3 13 7 ZW 1020,9 15 34 0,0
19.01.2018 17:00:00 15,3 9,4 6 3 13 7 ZZW 1020,1 18 7 0,0
19.01.2018 16:00:00 16,4 8,7 7 4 12 6 Z 1019,3 20 28 0,0
19.01.2018 15:00:00 15,9 7,8 5 3 13 7 Z 1019,1 17 0 0,0
19.01.2018 14:00:00 16,2 6,8 8 4 13 7 ZO 1019,1 19 0 0,0
19.01.2018 13:00:00 16,9 6,4 3 1 7 4 NNO 1019,8 20 0 -
19.01.2018 12:00:00 15,9 7,1 4 2 10 5 WNW 1020,7 14 0 0,0
19.01.2018 11:00:00 14,6 7,8 5 3 9 5 NNW 1020,9 20 0 0,0
19.01.2018 10:00:00 13,4 7,8 3 1 9 5 NNO 1020,3 12 0 0,0
19.01.2018 09:00:00 12,6 7,7 6 4 13 7 NNW 1019,9 16 0 0,0
19.01.2018 08:00:00 12,5 7,8 5 3 10 5 N 1019,8 16 0 0,0
19.01.2018 07:00:00 12,1 7,1 3 2 7 4 ZZO 1018,3 18 0 -
19.01.2018 06:00:00 12,1 7,6 6 3 14 7 WNW 1017,4 19 0 0,0
19.01.2018 05:00:00 12,1 7,6 5 3 10 5 NO 1017,9 17 0 0,0
19.01.2018 04:00:00 12,1 7,1 1 1 10 6 W 1018,0 19 0 0,0
19.01.2018 03:00:00 12,4 7,1 3 1 8 5 WNW 1018,4 19 0 0,0
19.01.2018 02:00:00 12,8 7,3 5 3 11 6 NNO 1018,5 20 0 0,0
19.01.2018 01:00:00 12,1 7,1 4 2 6 4 NW 1020,5 19 0 -
19.01.2018 00:00:00 12,8 7,4 3 2 9 5 NNO 1020,6 18 0 0,0
18.01.2018 23:00:00 12,7 7,4 2 1 9 5 ZW 1020,9 18 0 0,0
18.01.2018 22:00:00 13,1 7,7 5 3 8 4 NNO 1021,0 17 0 0,0
18.01.2018 21:00:00 13,7 7,7 4 2 16 8 O 1021,0 16 0 0,0
18.01.2018 20:00:00 14,2 8,8 8 4 21 12 ONO 1021,2 14 0 0,0
18.01.2018 19:00:00 14,5 8,3 12 7 22 12 O 1021,7 17 0 -
18.01.2018 18:00:00 14,8 8,9 7 4 25 13 O 1021,1 15 0 0,0
18.01.2018 17:00:00 15,5 8,7 10 6 31 17 O 1021,5 15 1 0,0
18.01.2018 16:00:00 16,7 8,4 15 8 36 19 O 1021,6 20 60 0,0
18.01.2018 15:00:00 17,1 8,5 20 11 35 19 OZO 1022,0 20 60 0,0
18.01.2018 14:00:00 19,1 4,5 20 11 34 18 OZO 1022,3 18 60 0,0
18.01.2018 13:00:00 18,9 1,9 15 8 27 15 O 1023,1 20 60 -
18.01.2018 12:00:00 17,7 1,7 12 7 28 15 ONO 1024,7 20 60 0,0
18.01.2018 11:00:00 16,8 1,7 16 8 26 14 O 1025,5 20 60 0,0
18.01.2018 10:00:00 15,6 2,5 10 6 19 11 ONO 1025,4 20 60 0,0
18.01.2018 09:00:00 12,7 5,6 5 3 16 9 ONO 1025,0 20 14 0,0
18.01.2018 08:00:00 12,1 7,4 7 4 14 8 NO 1024,9 20 0 0,0
18.01.2018 07:00:00 12,9 8,0 8 4 22 12 ONO 1024,7 20 0 -
18.01.2018 06:00:00 13,0 7,8 7 4 16 8 NO 1024,6 20 0 0,0
18.01.2018 05:00:00 13,5 8,0 8 4 16 9 NO 1024,8 20 0 0,0
18.01.2018 04:00:00 13,2 7,0 6 3 18 10 ONO 1025,0 20 0 0,0
18.01.2018 03:00:00 14,0 6,8 9 5 24 13 NO 1025,0 20 0 0,0
18.01.2018 02:00:00 14,2 6,2 10 6 22 12 NO 1024,8 20 0 0,0
18.01.2018 01:00:00 13,3 4,1 6 3 15 8 ONO 1025,0 20 0 -
18.01.2018 00:00:00 11,3 3,8 4 2 9 5 NO 1024,9 20 0 0,0
17.01.2018 23:00:00 12,3 3,8 4 2 13 7 ONO 1024,6 20 0 0,0
17.01.2018 22:00:00 12,4 5,6 6 4 13 7 NO 1024,2 20 0 0,0
17.01.2018 21:00:00 12,2 5,6 4 2 13 7 NNO 1024,0 20 0 0,0
17.01.2018 20:00:00 12,3 5,3 4 2 9 5 O 1023,2 20 0 0,0
17.01.2018 19:00:00 14,4 5,9 4 2 10 6 NW 1022,6 15 3 -
17.01.2018 18:00:00 17,4 3,6 3 2 10 5 Z 1022,0 20 54 0,0
17.01.2018 17:00:00 19,2 5,0 4 2 11 6 ZW 1021,6 20 60 0,0
17.01.2018 16:00:00 18,8 5,0 3 2 14 8 W 1021,4 20 60 0,0
17.01.2018 15:00:00 17,7 6,5 9 5 16 9 Z 1021,5 20 60 0,0
17.01.2018 14:00:00 18,6 5,5 8 4 15 8 ZZW 1021,6 20 60 0,0
17.01.2018 13:00:00 18,3 8,8 4 2 13 7 WZW 1022,6 20 60 -
17.01.2018 12:00:00 17,1 8,8 9 5 14 7 Z 1023,7 20 60 0,0
17.01.2018 11:00:00 17,7 6,2 4 2 6 4 Z 1023,8 20 60 0,0
17.01.2018 10:00:00 15,2 6,5 3 1 13 7 NO 1023,4 20 60 0,0
17.01.2018 09:00:00 9,8 5,1 4 2 14 8 NO 1022,9 20 13 0,0
17.01.2018 08:00:00 9,4 5,1 9 5 13 7 N 1022,3 20 0 0,0
17.01.2018 07:00:00 8,9 5,1 3 1 10 6 NO 1022,2 20 0 -
17.01.2018 06:00:00 9,4 5,1 7 4 10 5 N 1021,9 20 0 0,0
17.01.2018 05:00:00 10,1 5,6 6 3 11 6 NO 1022,0 20 0 0,0
17.01.2018 04:00:00 9,7 5,3 8 4 11 6 NO 1022,3 20 0 0,0
17.01.2018 03:00:00 10,1 4,6 7 4 13 7 NO 1022,7 20 0 0,0
17.01.2018 02:00:00 10,6 4,6 7 4 9 5 NNO 1023,5 20 0 0,0
17.01.2018 01:00:00 10,0 3,9 6 3 11 6 NO 1024,2 20 0 -
17.01.2018 00:00:00 9,8 3,8 2 1 11 6 WNW 1024,5 20 0 0,0
16.01.2018 23:00:00 10,4 4,1 3 2 10 5 N 1024,7 20 0 0,0
16.01.2018 22:00:00 11,5 4,6 4 2 9 5 NO 1024,8 20 0 0,0
16.01.2018 21:00:00 12,6 5,5 4 2 11 6 NO 1024,9 20 0 0,0
16.01.2018 20:00:00 12,8 5,6 5 3 8 4 N 1024,8 20 0 0,0
16.01.2018 19:00:00 14,2 6,2 4 2 8 4 ONO 1024,4 20 1 -
16.01.2018 18:00:00 16,6 7,3 3 1 7 4 O 1024,3 20 51 0,0
16.01.2018 17:00:00 17,6 7,0 4 2 18 10 ZZW 1024,8 20 60 0,0
16.01.2018 16:00:00 18,0 6,8 5 3 17 9 ZZW 1025,1 20 60 0,0
16.01.2018 15:00:00 18,2 -0,3 6 4 16 9 Z 1025,6 20 60 0,0
16.01.2018 14:00:00 17,0 -0,7 7 4 16 9 ZZW 1026,8 20 60 0,0
16.01.2018 13:00:00 15,8 3,2 9 5 21 11 ZZW 1028,1 20 60 -
16.01.2018 12:00:00 15,6 1,3 5 3 11 6 ZZW 1029,1 20 60 0,0
16.01.2018 11:00:00 13,9 1,5 3 2 8 4 Z 1029,5 20 60 0,2
16.01.2018 10:00:00 11,1 2,7 1 1 6 3 NNW 1029,3 20 60 0,0
16.01.2018 09:00:00 6,5 1,9 4 2 11 6 NNO 1028,8 20 12 0,0
16.01.2018 08:00:00 5,8 1,1 4 2 11 6 WNW 1028,7 20 0 0,0
16.01.2018 07:00:00 5,8 0,9 1 1 16 8 NO 1028,5 20 0 -
16.01.2018 06:00:00 5,8 1,1 3 2 15 8 W 1028,4 20 0 0,0
16.01.2018 05:00:00 6,3 1,9 6 3 10 5 NNW 1028,2 20 0 0,0
16.01.2018 04:00:00 5,5 1,7 3 1 5 3 W 1029,0 20 0 0,0
16.01.2018 03:00:00 6,5 2,1 4 2 16 8 NNW 1029,1 20 0 0,0
16.01.2018 02:00:00 6,8 2,5 5 3 10 6 WZW 1029,4 20 0 0,0
16.01.2018 01:00:00 7,6 2,5 3 1 10 5 NNW 1029,9 20 0 -
16.01.2018 00:00:00 8,7 3,0 6 3 14 8 NNW 1030,3 20 0 0,0
15.01.2018 23:00:00 8,6 3,4 4 2 13 7 NW 1030,2 20 0 0,0
15.01.2018 22:00:00 9,9 4,3 5 3 9 5 WNW 1029,5 20 0 0,0
15.01.2018 21:00:00 11,6 5,5 4 2 8 4 NW 1029,2 20 0 0,0
15.01.2018 20:00:00 12,6 5,3 4 2 6 4 N 1028,2 20 0 0,0
15.01.2018 19:00:00 13,1 4,5 2 1 5 3 ZZW 1027,4 20 0 -
15.01.2018 18:00:00 13,8 4,1 1 1 6 3 Z 1026,7 20 1 0,0
15.01.2018 17:00:00 14,1 3,6 3 2 11 6 ZZW 1026,3 20 0 0,0
15.01.2018 16:00:00 14,2 3,4 6 3 12 7 Z 1025,8 20 0 0,0
15.01.2018 15:00:00 14,3 2,9 10 5 23 12 ONO 1025,5 20 8 0,0
15.01.2018 14:00:00 14,0 3,4 11 6 23 12 ONO 1025,4 20 0 0,0
15.01.2018 13:00:00 13,9 3,0 9 5 21 11 NNO 1025,9 20 1 -

tt = temperatuur
td = dauwpunt
ff = windsnelheid
fx = windstoten
dd = windrichting
ppp = luchtdruk
vv = zicht
sd = Zonneschijnduur
rr = neerslag

Weerstations in de omgeving